no,date,time,temp,hum,dew
1,12-04-2020,12:32:50,17,77.1,12.9
2,12-04-2020,13:02:50,17.1,79.4,13.5
3,12-04-2020,13:32:50,17.6,73.2,12.7
4,12-04-2020,14:02:50,18.5,74,13.7
5,12-04-2020,14:32:50,18.7,72.3,13.6
6,12-04-2020,15:02:50,19.1,73.2,14.1
7,12-04-2020,15:32:50,18.9,68.3,12.9
8,12-04-2020,16:02:50,19,73.8,14.2
9,12-04-2020,16:32:50,18.8,74.7,14.2
10,12-04-2020,17:02:50,18.4,76.7,14.2
11,12-04-2020,17:32:50,18.4,81.2,15.1
12,12-04-2020,18:02:50,17.8,83.4,14.9
13,12-04-2020,18:32:50,17.3,84.8,14.7
14,12-04-2020,19:02:50,16.6,85.2,14.1
15,12-04-2020,19:32:50,16.1,86.4,13.8
16,12-04-2020,20:02:50,15.6,86,13.2
17,12-04-2020,20:32:50,15,85.7,12.6
18,12-04-2020,21:02:50,14.3,85.9,11.9
19,12-04-2020,21:32:50,13.5,85.5,11.1
20,12-04-2020,22:02:50,13.1,87,10.9
21,12-04-2020,22:32:50,12.7,87.1,10.6
22,12-04-2020,23:02:50,12.4,87.1,10.3
23,12-04-2020,23:32:50,12.1,88.4,10.2
24,12-05-2020,0:02:50,11.7,87.4,9.6
25,12-05-2020,0:32:50,11.6,87.8,9.6
26,12-05-2020,1:02:50,11.4,86.9,9.2
27,12-05-2020,1:32:50,11.1,87.8,9.1
28,12-05-2020,2:02:50,10.9,87.5,8.9
29,12-05-2020,2:32:50,10.8,87.4,8.7
30,12-05-2020,3:02:50,10.6,86.4,8.4
31,12-05-2020,3:32:50,10.3,85,7.8
32,12-05-2020,4:02:50,10.1,86,7.8
33,12-05-2020,4:32:50,10,85.4,7.6
34,12-05-2020,5:02:50,9.8,85.3,7.4
35,12-05-2020,5:32:50,9.5,85.6,7.2
36,12-05-2020,6:02:50,9.4,85.8,7.1
37,12-05-2020,6:32:50,9.3,85.6,7
38,12-05-2020,7:02:50,9.5,87.1,7.4
39,12-05-2020,7:32:50,9.8,88.3,7.9
40,12-05-2020,8:02:50,10.4,89,8.6
41,12-05-2020,8:32:50,11.1,89.7,9.4
42,12-05-2020,9:02:50,11.9,89.7,10.2
43,12-05-2020,9:32:50,12.6,88.2,10.7
44,12-05-2020,10:02:50,13.5,86.8,11.3
45,12-05-2020,10:32:50,14.8,86.3,12.5
46,12-05-2020,11:02:50,15.9,83.1,13
47,12-05-2020,11:32:50,16.9,78.9,13.2
48,12-05-2020,12:02:50,18.4,76.2,14.1
49,12-05-2020,12:32:50,19.8,74.9,15.2
50,12-05-2020,13:02:50,20.6,75.5,16.1
51,12-05-2020,13:32:50,21.2,73,16.1
52,12-05-2020,14:02:50,21.4,71.1,15.9
53,12-05-2020,14:32:50,21.3,69.3,15.4
54,12-05-2020,15:02:50,21,73.3,16
55,12-05-2020,15:32:50,20.7,76,16.3
56,12-05-2020,16:02:50,20.5,75.5,16
57,12-05-2020,16:32:50,20.1,78.6,16.2
58,12-05-2020,17:02:50,19.6,78.2,15.6
59,12-05-2020,17:32:50,19.3,80.1,15.7
60,12-05-2020,18:02:50,18.7,81.4,15.4
61,12-05-2020,18:32:50,18,83.8,15.2
62,12-05-2020,19:02:50,17.8,85.2,15.2
63,12-05-2020,19:32:50,17.4,87.5,15.3
64,12-05-2020,20:02:50,16.8,87,14.6
65,12-05-2020,20:32:50,16.1,86.7,13.8
66,12-05-2020,21:02:50,15.4,87.2,13.2
67,12-05-2020,21:32:50,15,85.2,12.5
68,12-05-2020,22:02:50,14.4,85.8,12
69,12-05-2020,22:32:50,14,86,11.6
70,12-05-2020,23:02:50,13.6,86.9,11.4
71,12-05-2020,23:32:50,13.2,87.1,11.1
72,12-06-2020,0:02:50,12.9,87.2,10.8
73,12-06-2020,0:32:50,12.5,88,10.5
74,12-06-2020,1:02:50,12.3,88.2,10.4
75,12-06-2020,1:32:50,12,88.6,10.1
76,12-06-2020,2:02:50,11.8,89.1,10
77,12-06-2020,2:32:50,11.4,88.8,9.6
78,12-06-2020,3:02:50,11.3,89.7,9.6
79,12-06-2020,3:32:50,11,89.5,9.3
80,12-06-2020,4:02:50,10.7,89.7,9
81,12-06-2020,4:32:50,10.6,89.9,9
82,12-06-2020,5:02:50,10.6,90.2,9
83,12-06-2020,5:32:50,10.5,90.3,8.9
84,12-06-2020,6:02:50,10.3,90.4,8.7
85,12-06-2020,6:32:50,10.6,90.9,9.1
86,12-06-2020,7:02:50,10.8,91.3,9.4
87,12-06-2020,7:32:50,11.2,91.8,9.9
88,12-06-2020,8:02:50,11.7,92.4,10.5
89,12-06-2020,8:32:50,12.2,92.6,11
90,12-06-2020,9:02:50,12.9,92.6,11.7
91,12-06-2020,9:32:50,13.7,92.7,12.5
92,12-06-2020,10:02:50,14.5,92.3,13.2
93,12-06-2020,10:32:50,15.7,91.7,14.3
94,12-06-2020,11:02:50,21.2,76.2,16.8
95,12-06-2020,11:32:50,18,73.7,13.2
96,12-06-2020,12:02:50,16.8,79.8,13.2
97,12-06-2020,12:32:50,19,85,16.4
98,12-06-2020,13:02:50,23.2,84.7,20.4
99,12-06-2020,13:32:50,23.6,81.5,20.2
100,12-06-2020,14:02:50,23.8,79.6,20
101,12-06-2020,14:32:50,24,77.5,19.8
102,12-06-2020,15:02:50,25.2,79.2,21.3
103,12-06-2020,15:32:50,26,67.3,19.4
104,12-06-2020,16:02:50,26.3,76,21.7
105,12-06-2020,16:32:50,26.1,76.5,21.6
106,12-06-2020,17:02:50,24.9,69.3,18.8
107,12-06-2020,17:32:50,24,70.3,18.2
108,12-06-2020,18:02:50,22.3,73,17.2
109,12-06-2020,18:32:50,21.6,67.9,15.4
110,12-06-2020,19:02:50,22.1,69.6,16.2
111,12-06-2020,19:32:50,22.9,69.5,17
112,12-06-2020,20:02:50,23.1,68.4,16.9
113,12-06-2020,20:32:50,22.7,67.2,16.3
114,12-06-2020,21:02:50,22,65.5,15.2
115,12-06-2020,21:32:50,21.2,64.6,14.2
116,12-06-2020,22:02:50,20.3,64.1,13.2
117,12-06-2020,22:32:50,19.6,63.8,12.5
118,12-06-2020,23:02:50,19,63.6,11.9
119,12-06-2020,23:32:50,18.4,63.5,11.3
120,12-07-2020,0:02:50,17.9,63.2,10.8
121,12-07-2020,0:32:50,17.4,63.2,10.3
122,12-07-2020,1:02:50,17,63.2,9.9
123,12-07-2020,1:32:50,16.5,63.1,9.4
124,12-07-2020,2:02:50,16.1,63.1,9
125,12-07-2020,2:32:50,15.7,63.2,8.7
126,12-07-2020,3:02:50,15.4,63.1,8.4
127,12-07-2020,3:32:50,15,63.1,8
128,12-07-2020,4:02:50,14.8,63.3,7.9
129,12-07-2020,4:32:50,14.5,63.3,7.6
130,12-07-2020,5:02:50,14.2,63.3,7.3
131,12-07-2020,5:32:50,13.9,63.4,7
132,12-07-2020,6:02:50,13.8,63.6,7
133,12-07-2020,6:32:50,13.8,64.1,7.1
134,12-07-2020,7:02:50,14.1,64.7,7.5
135,12-07-2020,7:32:50,14.9,65.8,8.5
136,12-07-2020,8:02:50,17.5,67.9,11.5
137,12-07-2020,8:32:50,20.4,70,14.7
138,12-07-2020,9:02:50,22.9,70.5,17.2
139,12-07-2020,9:32:50,24.9,73.4,19.8
140,12-07-2020,10:02:50,26.6,78.1,22.4
